• In Hungary
  • List of Countries
  • For 7 days
  • Water Temperature
  • Satellite Maps
  • Weather Map
  • News
  • Weather Widgets
  • user-avatar
    Login

    Hourly Weather Linz

    Today, 19 August, Saturday

    Time Temperature Precipitation Wind Pressure Humidity
    00:00 +21°C° 1.2 mm 3 mps 733 mmHg 89%
    01:00 +20°C° 1.2 mm 3 mps 733 mmHg 94%
    02:00 +19°C° 0.5 mm 3 mps 734 mmHg 95%
    03:00 +19°C° 0.5 mm 3 mps 734 mmHg 95%
    04:00 +19°C° 0.5 mm 2 mps 734 mmHg 96%
    05:00 +18°C° 1.4 mm 2 mps 734 mmHg 96%
    06:00 +18°C° 1.4 mm 2 mps 735 mmHg 96%
    07:00 +18°C° 1.4 mm 2 mps 735 mmHg 96%
    08:00 +18°C° 1.3 mm 2 mps 735 mmHg 96%
    09:00 +17°C° 1.3 mm 2 mps 736 mmHg 95%
    10:00 +17°C° 1.3 mm 2 mps 736 mmHg 95%
    11:00 +17°C° 1.1 mm 2 mps 736 mmHg 94%
    12:00 +17°C° 1.1 mm 2 mps 736 mmHg 94%
    13:00 +18°C° 1.1 mm 1 mps 736 mmHg 93%
    14:00 +18°C° 1.5 mm 1 mps 736 mmHg 94%
    15:00 +18°C° 1.5 mm 1 mps 737 mmHg 94%
    16:00 +16°C° 1.5 mm 1 mps 737 mmHg 94%
    17:00 +16°C° 0.8 mm 1 mps 737 mmHg 95%
    18:00 +15°C° 0.8 mm 1 mps 737 mmHg 95%
    19:00 +15°C° 0.8 mm 1 mps 737 mmHg 96%
    20:00 +15°C° 0.3 mm 1 mps 737 mmHg 95%
    21:00 +14°C° 0.3 mm 1 mps 737 mmHg 95%
    22:00 +14°C° 0.3 mm 1 mps 737 mmHg 95%
    23:00 +14°C° 0 mm 1 mps 737 mmHg 94%

    Tomorrow, 20 August, Sunday

    Time Temperature Precipitation Wind Pressure Humidity
    00:00 +13°C° 0 mm 1 mps 737 mmHg 94%
    01:00 +13°C° 0 mm 1 mps 737 mmHg 93%
    02:00 +13°C° 0 mm 1 mps 737 mmHg 94%
    03:00 +13°C° 0 mm 1 mps 737 mmHg 94%
    04:00 +13°C° 0 mm 1 mps 737 mmHg 94%
    05:00 +13°C° 0.2 mm 1 mps 737 mmHg 94%
    06:00 +14°C° 0.2 mm 1 mps 737 mmHg 94%
    07:00 +14°C° 0.2 mm 1 mps 737 mmHg 94%
    08:00 +15°C° 0 mm 1 mps 737 mmHg 88%
    09:00 +17°C° 0 mm 2 mps 737 mmHg 81%
    10:00 +18°C° 0 mm 2 mps 738 mmHg 75%
    11:00 +19°C° 0.1 mm 2 mps 737 mmHg 69%
    12:00 +20°C° 0.1 mm 3 mps 737 mmHg 63%
    13:00 +21°C° 0.1 mm 3 mps 737 mmHg 57%
    14:00 +21°C° 0.2 mm 3 mps 737 mmHg 58%
    15:00 +21°C° 0.2 mm 3 mps 737 mmHg 60%
    16:00 +21°C° 0.2 mm 3 mps 737 mmHg 61%
    17:00 +19°C° 0.1 mm 3 mps 737 mmHg 69%
    18:00 +17°C° 0.1 mm 2 mps 737 mmHg 77%
    19:00 +16°C° 0.1 mm 2 mps 738 mmHg 85%
    20:00 +15°C° 0 mm 2 mps 738 mmHg 87%
    21:00 +14°C° 0 mm 2 mps 738 mmHg 89%
    22:00 +13°C° 0 mm 2 mps 739 mmHg 92%
    23:00 +13°C° 0 mm 1 mps 739 mmHg 92%

    Day after tomorrow, 21 August, Monday

    Time Temperature Precipitation Wind Pressure Humidity
    00:00 +13°C° 0 mm 1 mps 739 mmHg 92%
    01:00 +12°C° 0 mm 1 mps 739 mmHg 92%
    02:00 +12°C° 0 mm 1 mps 739 mmHg 92%
    03:00 +12°C° 0 mm 1 mps 739 mmHg 93%
    04:00 +11°C° 0 mm 1 mps 739 mmHg 93%
    05:00 +12°C° 0 mm 1 mps 739 mmHg 90%
    06:00 +13°C° 0 mm 1 mps 739 mmHg 87%
    07:00 +14°C° 0 mm 1 mps 739 mmHg 84%
    08:00 +16°C° 0 mm 2 mps 739 mmHg 77%
    09:00 +17°C° 0 mm 2 mps 739 mmHg 69%
    10:00 +19°C° 0 mm 3 mps 739 mmHg 61%
    11:00 +20°C° 0 mm 3 mps 738 mmHg 58%
    12:00 +20°C° 0 mm 3 mps 738 mmHg 55%
    13:00 +21°C° 0 mm 3 mps 738 mmHg 52%
    14:00 +21°C° 0 mm 3 mps 737 mmHg 52%
    15:00 +21°C° 0 mm 3 mps 737 mmHg 53%
    16:00 +21°C° 0 mm 3 mps 737 mmHg 54%
    17:00 +19°C° 0 mm 3 mps 737 mmHg 62%
    18:00 +18°C° 0 mm 2 mps 737 mmHg 71%
    19:00 +16°C° 0 mm 1 mps 737 mmHg 79%
    20:00 +15°C° 0 mm 1 mps 738 mmHg 82%
    21:00 +14°C° 0 mm 1 mps 738 mmHg 84%
    22:00 +13°C° 0 mm 1 mps 739 mmHg 86%
    23:00 +13°C° 0 mm 1 mps 739 mmHg 87%

    22 August, Tuesday

    Time Temperature Precipitation Wind Pressure Humidity
    00:00 +12°C° 0 mm 1 mps 738 mmHg 89%
    01:00 +12°C° 0 mm 1 mps 738 mmHg 90%
    02:00 +12°C° 0 mm 1 mps 738 mmHg 91%
    03:00 +11°C° 0 mm 1 mps 738 mmHg 92%
    04:00 +11°C° 0 mm 1 mps 738 mmHg 92%
    05:00 +12°C° 0 mm 1 mps 738 mmHg 89%
    06:00 +13°C° 0 mm 1 mps 738 mmHg 85%
    07:00 +13°C° 0 mm 0 mps 739 mmHg 81%
    08:00 +18°C° 0 mm 1 mps 738 mmHg 73%
    09:00 +20°C° 0 mm 1 mps 738 mmHg 65%
    10:00 +22°C° 0 mm 1 mps 738 mmHg 56%
    11:00 +23°C° 0 mm 1 mps 738 mmHg 53%
    12:00 +24°C° 0 mm 1 mps 737 mmHg 49%
    13:00 +24°C° 0 mm 1 mps 737 mmHg 45%
    14:00 +24°C° 0 mm 1 mps 737 mmHg 46%
    15:00 +24°C° 0 mm 1 mps 736 mmHg 47%
    16:00 +24°C° 0 mm 1 mps 736 mmHg 47%
    17:00 +22°C° 0 mm 1 mps 736 mmHg 55%
    18:00 +20°C° 0 mm 1 mps 736 mmHg 64%
    19:00 +16°C° 0 mm 0 mps 736 mmHg 72%
    20:00 +16°C° 0 mm 1 mps 736 mmHg 74%
    21:00 +15°C° 0 mm 1 mps 736 mmHg 77%
    22:00 +14°C° 0 mm 1 mps 736 mmHg 79%
    23:00 +14°C° 0 mm 1 mps 736 mmHg 81%

    23 August, Wednesday

    Time Temperature Precipitation Wind Pressure Humidity
    00:00 +13°C° 0 mm 1 mps 736 mmHg 82%
    01:00 +13°C° 0 mm 1 mps 736 mmHg 84%
    02:00 +13°C° 0 mm 1 mps 736 mmHg 84%
    03:00 +13°C° 0 mm 1 mps 735 mmHg 85%
    04:00 +12°C° 0 mm 1 mps 735 mmHg 85%
    05:00 +13°C° 0 mm 1 mps 735 mmHg 82%
    06:00 +15°C° 0 mm 1 mps 735 mmHg 78%
    07:00 +15°C° 0 mm 0 mps 736 mmHg 75%
    08:00 +19°C° 0 mm 1 mps 736 mmHg 68%
    09:00 +21°C° 0 mm 1 mps 735 mmHg 61%
    10:00 +23°C° 0 mm 1 mps 735 mmHg 55%
    11:00 +24°C° 0 mm 1 mps 735 mmHg 51%
    12:00 +25°C° 0 mm 2 mps 735 mmHg 48%
    13:00 +26°C° 0 mm 2 mps 735 mmHg 45%
    14:00 +26°C° 0 mm 2 mps 734 mmHg 47%
    15:00 +26°C° 0 mm 2 mps 734 mmHg 49%
    16:00 +26°C° 0 mm 2 mps 734 mmHg 51%
    17:00 +24°C° 0 mm 2 mps 734 mmHg 60%
    18:00 +21°C° 0 mm 2 mps 734 mmHg 69%
    19:00 +20°C° 0 mm 1 mps 734 mmHg 79%
    20:00 +19°C° 0.1 mm 1 mps 735 mmHg 81%
    21:00 +18°C° 0.1 mm 1 mps 735 mmHg 84%
    22:00 +18°C° 0.1 mm 1 mps 735 mmHg 87%
    23:00 +16°C° 0 mm 1 mps 735 mmHg 88%

    24 August, Thursday

    Time Temperature Precipitation Wind Pressure Humidity
    00:00 +16°C° 0 mm 1 mps 736 mmHg 89%
    01:00 +16°C° 0 mm 1 mps 736 mmHg 90%
    02:00 +16°C° 0 mm 1 mps 736 mmHg 91%
    03:00 +15°C° 0 mm 1 mps 736 mmHg 91%
    04:00 +15°C° 0 mm 1 mps 736 mmHg 92%
    05:00 +16°C° 0 mm 1 mps 736 mmHg 89%
    06:00 +18°C° 0 mm 1 mps 736 mmHg 86%
    07:00 +19°C° 0 mm 1 mps 736 mmHg 83%
    08:00 +21°C° 0 mm 1 mps 736 mmHg 76%
    09:00 +23°C° 0 mm 1 mps 736 mmHg 69%
    10:00 +25°C° 0 mm 1 mps 736 mmHg 61%
    11:00 +26°C° 0 mm 1 mps 736 mmHg 58%
    12:00 +27°C° 0 mm 1 mps 736 mmHg 55%
    13:00 +28°C° 0 mm 1 mps 736 mmHg 53%
    14:00 +28°C° 0 mm 1 mps 736 mmHg 53%
    15:00 +28°C° 0 mm 1 mps 735 mmHg 54%
    16:00 +28°C° 0 mm 1 mps 735 mmHg 54%
    17:00 +26°C° 0 mm 1 mps 735 mmHg 62%
    18:00 +23°C° 0 mm 1 mps 735 mmHg 70%
    19:00 +21°C° 0 mm 1 mps 735 mmHg 78%
    20:00 +21°C° 0 mm 1 mps 735 mmHg 79%
    21:00 +20°C° 0 mm 1 mps 736 mmHg 80%
    22:00 +19°C° 0 mm 1 mps 736 mmHg 81%
    23:00 +19°C° 0 mm 1 mps 736 mmHg 81%
    Show more